Showing default

CHAMRAN-1, 61072

Orbit data source: Space-Track

CHAMRAN-1, 61072 is an Iranian payload satellite in LEO that was launched on Sat, 14 Sep 2024 UTC via a QAEM-100 launch vehicle from the Sharud Missile Test Site (SMTS). Payload-class satellites include a variety of spacecraft equipped with specific instruments for various scientific and technological missions. These include communications satellites like Starlink; space stations such as the ISS; scientific satellites like the Hubble; Earth observation satellites from companies like Planet Labs, Umbra, and HawkEye 360; GPS; miniature CubeSats for education and research; and military/defense satellites.

Loading next visibility...
Identifier
61072, 2024-165B
Orbit
LEO
Country
Flag of UnknownUnknown / IRAN
Related business
Manufacturer
IEI
Mission
Operational Defense Communications
Bus & Motor
Unknown
Mass
60 kg wet, 60 kg dry
Launch date (UTC)
2024-09-14 (1 year ago)
Launch vehicle
QAEM-100
Launch site
Sharud Missile Test Site (SMTS)
Object type
Payload
Rocket body
Debris
Shape & HBR
Box, 0.3 m
Radar Cross Section
0.375 m², Medium (>0.1 m² and < 1m²)

Expand to show TLE details & history
Last TLE update: 8 hours ago

TLE from 8 hours ago
0 CHAMRAN-1
1 61072U 24165B   26036.78991049  .00010224  00000-0  62737-3 0  9995
2 61072  64.0767 113.8863 0042674 312.0936  47.6553 15.09815046 76816
Epoch: 2026-02-05T18:57Z
TLE epoch observation values (Epoch: 2026-02-05T18:57:28.266Z)
Latitude
0.00001°
Longitude
53.58144°
Altitude
518.919 km
Speed
7.615 km/s
True Right ascension
07h 35m 32s
True Declination
0° 00' 00"
Sunlit
Object was in full shadow at epoch
Visualization orbit readout
Latitude
Unknown
Longitude
Unknown
Altitude
Unknown
Speed
Unknown
Apparent Right ascension
Unknown
Apparent Declination
Unknown
Sunlit
N/A
Visualization observer readout
Local Sidereal Time
04:51:07
Azimuth
Unknown
Elevation
Unknown
Doppler factor
Unknown
Orbital elements
Apogee altitude
564.913 km
Perigee altitude
505.908 km
Semi-major axis
6,913.547 km
Eccentricity
0.00427
Inclination
64.0767°
RAAN
113.8863°
Arg. of periapsis
312.0936°
True anomaly
48.01803°
Mean anomaly
47.6553°
Eccentric anomaly
47.83653°
Mean motion
3.77565 °/min
Orbital period
95.35 mins
BSTAR
0.00062737
Loading maneuver chart data...
Computing Atmospheric mass density...
Loading historical data...
Loading historical data...
Loading historical data...
Loading historical data...
Loading historical data...
Loading historical data...
Loading historical data...
Other satellites on launch #165 in the year 2024 (2024-09-14 UTC)

Documentation

Showing up to 5 results
|